Georgia Highway — 7JCV — position and weather

sailwx.info

Track history (hours):
 
Tides and Currents Weather Stations Pressure Air Temp Water Temp Dewpoint Dewpoint Depression Visibility Wind Speed Wind Dir Waves Ship Positions

Georgia Highway

Last reported at 2016-Jun-05 19:19 UTC. Time now 2016-Jun-27 07:53 UTC.
Position N 37°14' E 124°49'.
Warning: this ship's position is 21 days out of date.

Length 200 m; draft 8.6 m.

Type: Cargo ship. MMSI: 432629000.

Date/timePositionNaut miles runAvg speedWind from/ knotsBaromVisibWave heightAir tempDewpointWater temp
2016-Jun-05 19:19N 37°14' E 124°49'7 8.9
2016-Jun-05 18:31N 37°18' E 124°41'1413.8
2016-Jun-05 17:31N 37°24' E 124°26'1616.6
2016-Jun-05 16:33N 37°32' E 124°08'1716.7
2016-Jun-05 15:33N 37°40' E 123°49'1716.6
2016-Jun-05 14:33N 37°48' E 123°31'1616.0
2016-Jun-05 13:33N 37°55' E 123°13'1515.4
2016-Jun-05 12:33N 38°01' E 122°55'1915.0
2016-Jun-05 11:16N 38°06' E 122°31'1115.1
2016-Jun-05 10:33N 38°10' E 122°19'1615.6
2016-Jun-05 09:33N 38°15' E 121°60'1615.7
2016-Jun-05 08:33N 38°20' E 121°41'1815.5
2016-Jun-05 07:25N 38°25' E 121°19'1314.6
2016-Jun-05 06:33N 38°29' E 121°04'15415.3
2016-Jun-04 20:32N 38°58' E 117°51'3 3.3
2016-Jun-04 19:30N 38°59' E 117°47'0 0.0
2016-Jun-04 18:30N 38°59' E 117°47'0 0.0
2016-Jun-04 17:24N 38°59' E 117°47'0 0.0
2016-Jun-04 16:24N 38°59' E 117°47'0 0.0
2016-Jun-04 13:30N 38°59' E 117°47'0 0.0
2016-Jun-04 12:30N 38°59' E 117°47'0 0.0
2016-Jun-04 11:30N 38°59' E 117°47'0 0.0
2016-Jun-04 10:30N 38°59' E 117°47'0 0.0
2016-Jun-04 09:30N 38°59' E 117°47'0 0.0
2016-Jun-04 08:30N 38°59' E 117°47'0 0.0
2016-Jun-04 07:30N 38°59' E 117°47'0 0.0
2016-Jun-04 06:30N 38°59' E 117°47'0 0.0
2016-Jun-04 04:30N 38°59' E 117°47'0 0.0
2016-Jun-04 03:30N 38°59' E 117°47'0 0.0
2016-Jun-04 02:24N 38°59' E 117°47'0 0.0
2016-Jun-04 01:30N 38°59' E 117°47'0 0.0
2016-Jun-03 19:30N 38°59' E 117°47'0 0.0
2016-Jun-03 18:24N 38°59' E 117°47'0 0.0
2016-Jun-03 17:30N 38°59' E 117°47'0 0.0
2016-Jun-03 16:31N 38°59' E 117°47'6 6.5
2016-Jun-03 15:33N 38°57' E 117°54'11 1.2
2016-Jun-03 06:24N 38°56' E 118°09'0 0.0
2016-Jun-03 05:30N 38°56' E 118°09'0 0.0
2016-Jun-03 00:03N 38°56' E 118°09'0 0.1
2016-Jun-02 23:30N 38°56' E 118°09'0 0.1
2016-Jun-02 22:33N 38°56' E 118°09'0 0.0
2016-Jun-02 21:22N 38°56' E 118°09'5 6.5
2016-Jun-02 20:34N 38°52' E 118°14'1313.1
2016-Jun-02 19:33N 38°50' E 118°31'3014.2
2016-Jun-02 17:26N 38°47' E 119°09'1315.1
2016-Jun-02 16:33N 38°45' E 119°26'7114.3
2016-Jun-02 11:33N 38°36' E 120°57'8014.6
2016-Jun-02 06:04N 37°51' E 122°22'816.0
2016-Jun-02 05:33N 37°47' E 122°30'3816.0
2016-Jun-02 03:09N 37°13' E 122°53'1016.8
2016-Jun-02 02:34N 37°03' E 122°54'1716.5
2016-Jun-02 01:33N 36°46' E 122°52'33515.2
2016-Jun-01 03:32N 31°14' E 122°02'1413.4
2016-Jun-01 02:31N 31°18' E 121°47'5 2.4
2016-Jun-01 00:19N 31°19' E 121°41'0 0.0
2016-May-31 12:07N 31°19' E 121°41'0 0.2
2016-May-31 11:24N 31°19' E 121°41'5 5.5
2016-May-31 10:34N 31°18' E 121°46'1210.6
2016-May-31 09:28N 31°15' E 121°59'1010.2
2016-May-31 08:29N 31°11' E 122°10'121 5.5
2016-May-30 10:33N 29°19' E 123°03'35317.6
2016-May-29 14:33N 24°28' E 119°19'30117.5
2016-May-28 21:20N 22°07' E 114°29'1417.6
2016-May-28 20:33N 22°07' E 114°14'1716.9
2016-May-28 19:33N 22°07' E 113°56'9 9.2
2016-May-28 18:33N 22°11' E 113°47'1312.8
2016-May-28 17:33N 22°24' E 113°46'1813.5
2016-May-28 16:12N 22°42' E 113°41'21 2.7
2016-May-28 08:32N 23°01' E 113°32'0 0.0
2016-May-28 07:32N 23°01' E 113°32'0 0.0
2016-May-28 05:32N 23°01' E 113°32'0 0.0
2016-May-28 03:08N 23°01' E 113°32'0 0.0
2016-May-28 02:33N 23°01' E 113°32'2 2.2
2016-May-28 01:33N 22°59' E 113°32'9 9.5
2016-May-28 00:33N 22°50' E 113°35'8 1.1
2016-May-27 17:32N 22°43' E 113°41'10 9.8
2016-May-27 16:33N 22°51' E 113°34'9 9.4
2016-May-27 15:33N 23°00' E 113°32'3 2.7
2016-May-27 14:32N 22°57' E 113°33'6 5.8
2016-May-27 13:33N 22°52' E 113°34'8 8.1
2016-May-27 12:33N 22°45' E 113°39'12 9.9
2016-May-27 11:20N 22°34' E 113°43'1212.7
2016-May-27 10:22N 22°22' E 113°47'1011.9
2016-May-27 09:33N 22°12' E 113°48'7 7.0
2016-May-27 08:33N 22°06' E 113°50'  
Track history (hours):
 
Tides and Currents Weather Stations Pressure Air Temp Water Temp Dewpoint Dewpoint Depression Visibility Wind Speed Wind Dir Waves Ship Positions

Georgia Highway

Last reported at 2016-Jun-05 19:19 UTC. Time now 2016-Jun-27 07:53 UTC.
Position N 37°14' E 124°49'.
Warning: this ship's position is 21 days out of date.

Length 200 m; draft 8.6 m.

Type: Cargo ship. MMSI: 432629000.

Date/timePositionNaut miles runAvg speedWind from/ knotsBaromVisibWave heightAir tempDewpointWater temp
2016-Jun-05 19:19N 37°14' E 124°49'7 8.9
2016-Jun-05 18:31N 37°18' E 124°41'1413.8
2016-Jun-05 17:31N 37°24' E 124°26'1616.6
2016-Jun-05 16:33N 37°32' E 124°08'1716.7
2016-Jun-05 15:33N 37°40' E 123°49'1716.6
2016-Jun-05 14:33N 37°48' E 123°31'1616.0
2016-Jun-05 13:33N 37°55' E 123°13'1515.4
2016-Jun-05 12:33N 38°01' E 122°55'1915.0
2016-Jun-05 11:16N 38°06' E 122°31'1115.1
2016-Jun-05 10:33N 38°10' E 122°19'1615.6
2016-Jun-05 09:33N 38°15' E 121°60'1615.7
2016-Jun-05 08:33N 38°20' E 121°41'1815.5
2016-Jun-05 07:25N 38°25' E 121°19'1314.6
2016-Jun-05 06:33N 38°29' E 121°04'15415.3
2016-Jun-04 20:32N 38°58' E 117°51'3 3.3
2016-Jun-04 19:30N 38°59' E 117°47'0 0.0
2016-Jun-04 18:30N 38°59' E 117°47'0 0.0
2016-Jun-04 17:24N 38°59' E 117°47'0 0.0
2016-Jun-04 16:24N 38°59' E 117°47'0 0.0
2016-Jun-04 13:30N 38°59' E 117°47'0 0.0
2016-Jun-04 12:30N 38°59' E 117°47'0 0.0
2016-Jun-04 11:30N 38°59' E 117°47'0 0.0
2016-Jun-04 10:30N 38°59' E 117°47'0 0.0
2016-Jun-04 09:30N 38°59' E 117°47'0 0.0
2016-Jun-04 08:30N 38°59' E 117°47'0 0.0
2016-Jun-04 07:30N 38°59' E 117°47'0 0.0
2016-Jun-04 06:30N 38°59' E 117°47'0 0.0
2016-Jun-04 04:30N 38°59' E 117°47'0 0.0
2016-Jun-04 03:30N 38°59' E 117°47'0 0.0
2016-Jun-04 02:24N 38°59' E 117°47'0 0.0
2016-Jun-04 01:30N 38°59' E 117°47'0 0.0
2016-Jun-03 19:30N 38°59' E 117°47'0 0.0
2016-Jun-03 18:24N 38°59' E 117°47'0 0.0
2016-Jun-03 17:30N 38°59' E 117°47'0 0.0
2016-Jun-03 16:31N 38°59' E 117°47'6 6.5
2016-Jun-03 15:33N 38°57' E 117°54'11 1.2
2016-Jun-03 06:24N 38°56' E 118°09'0 0.0
2016-Jun-03 05:30N 38°56' E 118°09'0 0.0
2016-Jun-03 00:03N 38°56' E 118°09'0 0.1
2016-Jun-02 23:30N 38°56' E 118°09'0 0.1
2016-Jun-02 22:33N 38°56' E 118°09'0 0.0
2016-Jun-02 21:22N 38°56' E 118°09'5 6.5
2016-Jun-02 20:34N 38°52' E 118°14'1313.1
2016-Jun-02 19:33N 38°50' E 118°31'3014.2
2016-Jun-02 17:26N 38°47' E 119°09'1315.1
2016-Jun-02 16:33N 38°45' E 119°26'7114.3
2016-Jun-02 11:33N 38°36' E 120°57'8014.6
2016-Jun-02 06:04N 37°51' E 122°22'816.0
2016-Jun-02 05:33N 37°47' E 122°30'3816.0
2016-Jun-02 03:09N 37°13' E 122°53'1016.8
2016-Jun-02 02:34N 37°03' E 122°54'1716.5
2016-Jun-02 01:33N 36°46' E 122°52'33515.2
2016-Jun-01 03:32N 31°14' E 122°02'1413.4
2016-Jun-01 02:31N 31°18' E 121°47'5 2.4
2016-Jun-01 00:19N 31°19' E 121°41'0 0.0
2016-May-31 12:07N 31°19' E 121°41'0 0.2
2016-May-31 11:24N 31°19' E 121°41'5 5.5
2016-May-31 10:34N 31°18' E 121°46'1210.6
2016-May-31 09:28N 31°15' E 121°59'1010.2
2016-May-31 08:29N 31°11' E 122°10'121 5.5
2016-May-30 10:33N 29°19' E 123°03'35317.6
2016-May-29 14:33N 24°28' E 119°19'30117.5
2016-May-28 21:20N 22°07' E 114°29'1417.6
2016-May-28 20:33N 22°07' E 114°14'1716.9
2016-May-28 19:33N 22°07' E 113°56'9 9.2
2016-May-28 18:33N 22°11' E 113°47'1312.8
2016-May-28 17:33N 22°24' E 113°46'1813.5
2016-May-28 16:12N 22°42' E 113°41'21 2.7
2016-May-28 08:32N 23°01' E 113°32'0 0.0
2016-May-28 07:32N 23°01' E 113°32'0 0.0
2016-May-28 05:32N 23°01' E 113°32'0 0.0
2016-May-28 03:08N 23°01' E 113°32'0 0.0
2016-May-28 02:33N 23°01' E 113°32'2 2.2
2016-May-28 01:33N 22°59' E 113°32'9 9.5
2016-May-28 00:33N 22°50' E 113°35'8 1.1
2016-May-27 17:32N 22°43' E 113°41'10 9.8
2016-May-27 16:33N 22°51' E 113°34'9 9.4
2016-May-27 15:33N 23°00' E 113°32'3 2.7
2016-May-27 14:32N 22°57' E 113°33'6 5.8
2016-May-27 13:33N 22°52' E 113°34'8 8.1
2016-May-27 12:33N 22°45' E 113°39'12 9.9
2016-May-27 11:20N 22°34' E 113°43'1212.7
2016-May-27 10:22N 22°22' E 113°47'1011.9
2016-May-27 09:33N 22°12' E 113°48'7 7.0
2016-May-27 08:33N 22°06' E 113°50'  

Dump ship's entire track history